Regional Weather Roundup
Issued by NWS Columbia, SC

Home | Current Version | Previous Version | Text Only | Print | Product List | Glossary On
Versions: 1 2 3 4 5 6 7 8 9 10 11 12 13 14 15 16 17 18 19 20 21 22 23 24 25 26 27
000
ASUS42 KCAE 281710
RWRCAE
REGIONAL WEATHER ROUNDUP
NATIONAL WEATHER SERVICE COLUMBIA SC
1200 PM EST TUE FEB 28 2017

NOTE: "FAIR" INDICATES FEW OR NO CLOUDS BELOW 12,000 FEET WITH NO
SIGNIFICANT WEATHER AND/OR OBSTRUCTIONS TO VISIBILITY.

NOT ALL STATIONS ARE QUALITY CONTROLLED BY THE NATIONAL
WEATHER SERVICE. USE DATA WITH CAUTION...ESPECIALLY
DEWPOINT OBSERVATIONS.

SCZ001>056-GAZ040-063>065-077-281800-
...UPSTATE SOUTH CAROLINA...

CITY           SKY/WX    TMP DP  RH WIND       PRES   REMARKS
ANDERSON       MOSUNNY   69  51  52 S8        30.25F
LIBERTY        PTSUNNY   67  49  53 CALM      30.25F
SPARTANBURG    MOSUNNY   66  46  48 SW7       30.25F
CLEMSON        PTSUNNY   67  50  54 SE7       30.27F
GREENVILLE     MOSUNNY   67  50  54 SW9       30.26F
GREENWOOD      MOSUNNY   69  54  58 S3        30.27F
GREER          MOSUNNY   68  50  52 W8        30.25F
ROCK HILL      CLOUDY    68  55  63 W7        30.26F
CHESTER        CLOUDY    68  52  56 S6        30.27F
LAURENS        MOSUNNY   68  54  60 SW3       30.26F HAZE


...CENTRAL SOUTH CAROLINA...

CITY           SKY/WX    TMP DP  RH WIND       PRES   REMARKS
COLUMBIA APT   PTSUNNY   78  59  51 VRB7      30.24F
COLUMBIA OWENS MOSUNNY   75  59  57 S3        30.26F
MCENTIRE ANGB  PTSUNNY   76  60  58 CALM      30.25F
ORANGEBURG     MOSUNNY   76  61  59 MISG      30.26S
SUMTER SHAW    PTSUNNY   76  60  59 S8        30.24S
NEWBERRY       SUNNY     70  57  64 SW3       30.29F
AIKEN          FAIR      73  57  56 CALM      30.28F
BARNWELL       FAIR      79  63  57 S7G13     30.25F
MANNING        FAIR      73  37  27 MISG      30.26S
CAMDEN         FAIR      73  59  60 S8        30.26F
LANCASTER      MOSUNNY   72  57  60 S9        30.26F
WINNSBORO      SUNNY     72  59  64 CALM      30.26F


...EASTERN AND COASTAL SOUTH CAROLINA...

CITY           SKY/WX    TMP DP  RH WIND       PRES   REMARKS
MYRTLE BEACH   PTSUNNY   73  64  73 S14       30.29F
N MYRTLE BCH   SUNNY     69  64  84 SE9       30.29F
CONWAY         FAIR      77  63  61 S3        30.27F
MARION         PTSUNNY   73  61  64 S8        30.26F
HARTSVILLE     PTSUNNY   72  59  64 SW6       30.25F
FLORENCE       PTSUNNY   74  62  66 SW9       30.25F
DARLINGTON     PTSUNNY   74  61  63 S7        30.26F
CHARLESTON APT PTSUNNY   76  64  66 SW13      30.26F
MOUNT PLEASANT PTSUNNY   75  66  73 S13G18    30.26F
WALTERBORO     CLOUDY    73  64  73 S13       30.27F
BEAUFORT       CLOUDY    75  70  84 S8        30.26F


...EASTERN GEORGIA...

CITY           SKY/WX    TMP DP  RH WIND       PRES   REMARKS
AUGUSTA BUSH F MOSUNNY   77  62  59 S5        30.24F
AUGUSTA DANIEL SUNNY     74  58  57 SE3       30.26F
THOMSON        MOSUNNY   73  62  68 CALM      30.31S
WASHINGTON     FAIR      70  59  68 S5        30.27F
CLAXTON        FAIR     N/A N/A N/A S5        30.26F
SYLVANIA       SUNNY    N/A N/A N/A S7        30.26F
STATESBORO     SUNNY     77  67  71 S3        30.26F
SAVANNAH       MOSUNNY   79  64  60 SW9       30.26F


...SOUTHERN NORTH CAROLINA...

CITY           SKY/WX    TMP DP  RH WIND       PRES   REMARKS
CHARLOTTE      PTSUNNY   69  53  56 SW10      30.26F
MONROE         CLOUDY    71  54  54 SW12      30.24F
WADESBORO      MOSUNNY   74  57  56 SW3       30.24F
ROCKINGHAM     MOSUNNY   73  60  64 S7        30.25F
RUTHERFORDTON  MOSUNNY   64  46  50 S3        30.26F
ASHEVILLE      CLOUDY    66  47  50 S12       30.24F

$$




USA.gov is the U.S. government's official web portal to all federal, state and local government web resources and services.